OneWeb SL0436

operational
NORAD ID: 51633 Int'l Des: 2022-012 Owner: ONEWEBN Country: UK Constellation: oneweb
LEOCIRCULARPOLARONEWEB_TYPE

OneWeb SL0436について

説明を読み込み中...

リアルタイム位置

3D地球を読み込み中...

次回通過

高度履歴

Altitude vs Time

uPlot chart will show altitude changes over time

軌道要素

1 51633U 22012M 25306.31494014 -.00000014 00000-0 -70081-4 0 9994
2 51633 87.9129 50.9471 0001930 105.3221 254.8124 13.17651743183803
Epoch: Nov 2, 2025 • Age: 46 hours

現在のステータス

高度 1196.0 km
速度 7.26 km/s
衛星直下点 26.32°N, 97.34°E
打ち上げ日 Feb 10, 2022
運用期間 3.7 years
タイプ internet

技術仕様

分類 Payload
質量 148.00 kg
乾燥質量 140.00 kg
総質量 148.00 kg
長さ 1.30 m
直径 1.00 m
スパン 5.00 m
形状 Trapezoid+2 pan
製造者 ONEWUS
バスタイプ ARROW
フェーズステータス In Orbit
所有者/国 ONEWEBN/UK

大規模コンステレーション

Loading constellations...